[[{"header":{"parameterUnit":"m.s-1","parameterCategory":1,"la1":30.2991,"la2":30.254,"lo1":-89.0895,"lo2":-89.0444,"dy":0.0017,"dx":0.0017,"nx":28,"ny":28,"refTime":"2025-12-10T03:00:00:Z","depth":0,"parameterNumber":2,"parameterNumberName":"U-component_of_WINDS"},"data":[0,0,0,0,0,0,0,0,0,0,0,0,0,0,0,0,0,0,0,0,0,0,0,0,0,0,0,0,0,0,0,0,0,0,0,0,0,0,0,0,0,0,0,0,0,0,0,0,0,0,0,0,0,0,0,0,0,0,-0.1243,-0.1243,0,-0.1246,-0.1246,-0.1246,-0.1188,-0.1187,-0.1185,-0.1184,-0.119,-0.1192,-0.1193,0,0,0,0,0,0,0,0,0,0,0,0,0,-0.119,-0.1191,-0.1243,-0.1243,-0.1243,-0.1246,-0.1246,-0.1246,-0.1189,-0.1187,-0.1185,-0.1183,-0.1189,-0.1191,-0.1193,0,0,0,0,0,0,0,0,0,0,0,0,0,-0.1205,-0.1192,-0.1243,-0.1215,-0.1212,-0.1246,-0.1246,-0.1246,-0.1189,-0.1187,-0.1184,-0.1182,-0.1189,-0.1191,-0.1194,-0.1255,0,0,-0.1201,-0.1202,0,0,0,0,0,0,0,0,-0.1204,-0.1207,-0.1219,-0.1217,-0.1214,-0.1214,-0.1229,-0.1249,-0.119,-0.1198,-0.1184,-0.1181,-0.12,-0.1201,-0.1207,-0.1256,-0.1256,-0.1201,-0.1203,-0.1204,-0.1204,0,0,0,0,0,0,0,-0.1203,-0.1207,-0.1244,-0.1219,-0.1216,-0.1202,-0.1202,-0.1233,-0.1212,-0.1197,-0.1193,-0.1194,-0.1198,-0.1205,-0.1207,-0.1256,-0.1201,-0.1203,-0.1205,-0.1206,-0.1355,-0.1357,0,0,0,0,0,0,-0.1206,-0.1206,-0.1244,-0.1244,-0.1203,-0.1205,-0.1205,-0.1216,-0.1212,-0.1209,-0.1196,-0.1191,-0.1202,-0.1204,-0.1207,-0.1279,-0.1204,-0.1206,-0.1207,-0.1352,-0.1355,-0.1358,0,0,0,0,0,0,-0.1205,-0.121,-0.1244,-0.1224,-0.1227,-0.1209,-0.1222,-0.1218,-0.1224,-0.1211,-0.1207,-0.1206,-0.12,-0.1204,-0.1243,-0.1279,-0.1207,-0.1209,-0.1349,-0.1353,-0.1357,-0.1425,0,0,0,0,0,0,-0.1203,-0.121,-0.1233,-0.1225,-0.1228,-0.128,-0.1224,-0.122,-0.1228,-0.1222,-0.122,-0.1217,-0.1199,-0.124,-0.1246,-0.1281,-0.1211,-0.1346,-0.1351,-0.1355,-0.1419,-0.143,-0.144,0,0,0,0,0,-0.1202,-0.1252,-0.1234,-0.1239,-0.1257,-0.1282,-0.1284,-0.1261,-0.1231,-0.1255,-0.1246,-0.1217,-0.1273,-0.1245,-0.1251,-0.1287,-0.1344,-0.135,-0.1355,-0.1415,-0.1428,-0.144,0,0,0,0,0,0,-0.1267,-0.1251,-0.1231,-0.128,-0.1283,-0.1272,-0.1301,-0.1276,-0.1289,-0.1283,-0.1254,-0.1254,-0.1299,-0.1296,-0.1265,-0.1346,-0.1303,-0.1311,-0.1347,-0.1359,-0.1369,-0.137,-0.1213,0,0,0,0,0,-0.1286,-0.1307,-0.1293,-0.1338,-0.134,-0.132,-0.1331,-0.1312,-0.1315,-0.1316,-0.131,-0.1314,-0.1332,-0.1345,-0.1361,-0.1417,-0.1417,-0.1445,-0.1456,-0.1464,-0.1471,-0.1501,-0.1514,-0.1376,-0.1376,-0.1376,0,0,-0.1328,-0.1322,-0.1338,-0.1351,-0.1351,-0.1374,-0.1322,-0.1349,-0.1366,-0.132,-0.1358,-0.1353,-0.1355,-0.1404,-0.1425,-0.1403,-0.1509,-0.1471,-0.1478,-0.1481,-0.1508,-0.1521,-0.1533,-0.138,-0.138,-0.1379,0,0,-0.1417,-0.1414,-0.1451,-0.1451,-0.1451,-0.1437,-0.1446,-0.1439,-0.1434,-0.147,-0.1436,-0.1456,-0.1489,-0.1492,-0.1498,-0.1585,-0.156,-0.1591,-0.1646,-0.1675,-0.1686,-0.1695,-0.1728,-0.174,-0.1598,-0.1598,-0.1598,0,-0.1469,-0.1502,-0.1474,-0.1503,-0.151,-0.1467,-0.1505,-0.1507,-0.1513,-0.1519,-0.1494,-0.1533,-0.1531,-0.158,-0.1601,-0.1607,-0.1617,-0.1593,-0.1686,-0.1696,-0.1704,-0.1735,-0.1747,-0.1602,-0.1601,-0.1601,-0.16,0,-0.1567,-0.159,-0.162,-0.1626,-0.1636,-0.1669,-0.1646,-0.166,-0.164,-0.1629,-0.1667,-0.1663,-0.1678,-0.1687,-0.1669,-0.1733,-0.172,-0.1691,-0.1648,-0.1722,-0.175,-0.1761,-0.1607,-0.1606,-0.1605,-0.1604,0,0,-0.17,-0.1687,-0.1699,-0.17,-0.1696,-0.1714,-0.1744,-0.1757,-0.177,-0.1775,-0.1801,-0.1828,-0.1801,-0.1808,-0.1789,-0.1814,-0.1885,-0.1782,-0.1782,-0.1803,-0.1957,-0.198,-0.1994,-0.1866,-0.1868,-0.187,-0.1957,0,-0.1787,-0.1839,-0.1813,-0.1869,-0.189,-0.1848,-0.1875,-0.1876,-0.1866,-0.1883,-0.1872,-0.1892,-0.1854,-0.1858,-0.1881,-0.1871,-0.1916,-0.1864,-0.1892,-0.1893,-0.1895,-0.2009,-0.2034,-0.2116,-0.1968,-0.1969,-0.1971,0,-0.1896,-0.1904,-0.1961,-0.1952,-0.196,-0.1985,-0.1994,-0.2011,-0.201,-0.2001,-0.2007,-0.1982,-0.2012,-0.1967,-0.2009,-0.1975,-0.1984,-0.1981,-0.1984,-0.1988,-0.1939,-0.2018,-0.2142,-0.2155,-0.1988,-0.1986,-0.1985,0,-0.1989,-0.2014,-0.2051,-0.2053,-0.2043,-0.2062,-0.2059,-0.2055,-0.2065,-0.2073,-0.2078,-0.209,-0.2098,-0.2108,-0.2086,-0.2055,-0.2132,-0.2085,-0.2126,-0.2127,-0.2147,-0.2146,-0.2276,-0.2149,-0.2149,-0.2149,-0.2148,0,-0.209,-0.2128,-0.2093,-0.2116,-0.2156,-0.2126,-0.2167,-0.2159,-0.2156,-0.2178,-0.2142,-0.2163,-0.2133,-0.2151,-0.2134,-0.2172,-0.2175,-0.217,-0.2165,-0.2174,-0.2175,-0.2182,-0.2177,-0.2152,-0.2151,-0.215,-0.215,0,-0.2203,-0.218,-0.2219,-0.2205,-0.2202,-0.2233,-0.2221,-0.2242,-0.2228,-0.2256,-0.2261,-0.224,-0.226,-0.2238,-0.2257,-0.2245,-0.2297,-0.2283,-0.2297,-0.2294,-0.2337,-0.2334,-0.2478,-0.2496,-0.2356,-0.2357,-0.2358,0,-0.227,-0.2298,-0.2286,-0.2297,-0.2296,-0.2314,-0.2323,-0.2293,-0.2304,-0.2304,-0.2326,-0.2342,-0.2353,-0.2386,-0.2374,-0.2387,-0.2375,-0.2424,-0.2377,-0.2385,-0.2378,-0.2377,-0.238,-0.2435,-0.2436,-0.2438,-0.2439,0,-0.2393,-0.238,-0.2393,-0.2402,-0.2413,-0.2419,-0.2423,-0.2434,-0.2403,-0.2417,-0.2435,-0.2444,-0.2462,-0.2479,-0.2488,-0.2485,-0.2458,-0.2453,-0.2464,-0.2475,-0.2483,-0.2481,-0.2326,-0.2451,-0.245,-0.2449,-0.2448,-0.2448,-0.2486,-0.2508,-0.2503,-0.2519,-0.2518,-0.2521,-0.2541,-0.2528,-0.2543,-0.2554,-0.2536,-0.256,-0.2557,-0.2567,-0.2567,-0.2586,-0.2565,-0.258,-0.2584,-0.2589,-0.2596,-0.2477,-0.2587,-0.2587,-0.2586,-0.2586,-0.2586,0,-0.2608,-0.2602,-0.2617,-0.2622,-0.2634,-0.2604,-0.2606,-0.2619,-0.264,-0.2639,-0.2651,-0.2672,-0.2688,-0.2675,-0.2688,-0.2705,-0.2693,-0.271,-0.271,-0.271,-0.2613,-0.2604,-0.272,-0.272,-0.272,-0.272,-0.272,-0.272,-0.2674,-0.271,-0.2696,-0.2732,-0.2725,-0.2747,-0.2751,-0.2754,-0.2754,-0.2779,-0.2791,-0.2782,-0.2776,-0.2788,-0.2802,-0.2797,-0.2805,-0.2827,-0.2819,-0.2729,-0.2716,-0.2704,-0.2695,-0.2828,-0.2828,-0.2913,-0.2914,-0.2915]},{"header":{"parameterUnit":"m.s-1","parameterCategory":1,"la1":30.2991,"la2":30.254,"lo1":-89.0895,"lo2":-89.0444,"dy":0.0017,"dx":0.0017,"nx":28,"ny":28,"refTime":"2025-12-10T03:00:00:Z","depth":0,"parameterNumber":3,"parameterNumberName":"V-component_of_WINDS"},"data":[0,0,0,0,0,0,0,0,0,0,0,0,0,0,0,0,0,0,0,0,0,0,0,0,0,0,0,0,0,0,0,0,0,0,0,0,0,0,0,0,0,0,0,0,0,0,0,0,0,0,0,0,0,0,0,0,0,0,-4.5925,-4.5926,0,-4.6032,-4.6033,-4.6034,-4.5957,-4.5953,-4.595,-4.5947,-4.6053,-4.6059,-4.6064,0,0,0,0,0,0,0,0,0,0,0,0,0,-4.565,-4.5656,-4.5925,-4.5926,-4.5928,-4.6031,-4.6033,-4.6034,-4.5957,-4.5953,-4.5949,-4.5945,-4.6051,-4.6058,-4.6065,0,0,0,0,0,0,0,0,0,0,0,0,0,-4.5764,-4.5657,-4.5925,-4.5902,-4.5901,-4.6031,-4.6033,-4.6035,-4.5958,-4.5953,-4.5948,-4.5943,-4.6048,-4.6057,-4.6066,-4.6224,0,0,-4.6093,-4.6097,0,0,0,0,0,0,0,0,-4.5758,-4.5775,-4.5904,-4.5904,-4.5903,-4.5976,-4.5975,-4.6098,-4.596,-4.5936,-4.5947,-4.5941,-4.6031,-4.6041,-4.6072,-4.6229,-4.6233,-4.6094,-4.61,-4.6104,-4.6106,0,0,0,0,0,0,0,-4.575,-4.5769,-4.5967,-4.5906,-4.5905,-4.5885,-4.5895,-4.5998,-4.6011,-4.5938,-4.5933,-4.5946,-4.603,-4.6064,-4.6074,-4.6235,-4.6094,-4.6102,-4.6108,-4.6111,-4.6524,-4.653,0,0,0,0,0,0,-4.5745,-4.5763,-4.5963,-4.597,-4.5816,-4.5894,-4.5906,-4.5957,-4.601,-4.6013,-4.5951,-4.5943,-4.6051,-4.6064,-4.6078,-4.6265,-4.6104,-4.6112,-4.6117,-4.6519,-4.6525,-4.6531,0,0,0,0,0,0,-4.5739,-4.5764,-4.5959,-4.5865,-4.5889,-4.5904,-4.5963,-4.5962,-4.5996,-4.6019,-4.6021,-4.5984,-4.6047,-4.6065,-4.6188,-4.6268,-4.6116,-4.6124,-4.6512,-4.6521,-4.6528,-4.6642,0,0,0,0,0,0,-4.5732,-4.5762,-4.5823,-4.5867,-4.5894,-4.607,-4.5968,-4.5968,-4.6012,-4.6003,-4.605,-4.6053,-4.6045,-4.6175,-4.6197,-4.6277,-4.6131,-4.6505,-4.6516,-4.6526,-4.6631,-4.6653,-4.6672,0,0,0,0,0,-4.5722,-4.585,-4.5827,-4.5851,-4.5971,-4.6074,-4.6089,-4.6078,-4.6019,-4.608,-4.6095,-4.6052,-4.6255,-4.6188,-4.6212,-4.6297,-4.65,-4.6513,-4.6525,-4.6622,-4.6649,-4.6671,0,0,0,0,0,0,-4.5815,-4.5856,-4.583,-4.5977,-4.6023,-4.6061,-4.6138,-4.6107,-4.617,-4.6158,-4.6139,-4.6151,-4.628,-4.63,-4.6225,-4.6451,-4.6368,-4.6386,-4.6433,-4.6459,-4.6479,-4.6472,-4.6139,0,0,0,0,0,-4.5852,-4.5934,-4.5965,-4.6091,-4.6115,-4.6123,-4.6167,-4.6154,-4.6201,-4.622,-4.6243,-4.6289,-4.6363,-4.6412,-4.6481,-4.6633,-4.6642,-4.6703,-4.6723,-4.674,-4.6756,-4.6837,-4.6864,-4.6573,-4.6573,-4.6572,0,0,-4.593,-4.5963,-4.6015,-4.611,-4.6144,-4.6228,-4.614,-4.6232,-4.6293,-4.6233,-4.6351,-4.637,-4.6419,-4.6557,-4.6619,-4.6578,-4.6838,-4.6756,-4.6769,-4.6776,-4.6852,-4.688,-4.6904,-4.6581,-4.658,-4.6578,0,0,-4.6116,-4.6149,-4.6257,-4.6293,-4.6346,-4.635,-4.6376,-4.6419,-4.643,-4.6548,-4.6504,-4.6576,-4.6704,-4.6741,-4.6776,-4.6974,-4.6937,-4.6997,-4.7104,-4.7183,-4.7206,-4.7226,-4.7296,-4.7322,-4.7013,-4.7013,-4.7013,0,-4.6206,-4.6331,-4.6317,-4.6413,-4.6455,-4.6405,-4.6514,-4.6549,-4.6622,-4.6651,-4.6604,-4.6764,-4.6793,-4.6939,-4.6987,-4.7018,-4.7046,-4.6992,-4.7204,-4.7224,-4.7243,-4.7309,-4.7336,-4.702,-4.7019,-4.7018,-4.7018,0,-4.6439,-4.6527,-4.6608,-4.668,-4.6732,-4.6834,-4.6833,-4.6887,-4.6869,-4.6877,-4.6997,-4.7031,-4.7106,-4.7139,-4.7122,-4.7282,-4.7255,-4.7207,-4.7123,-4.7278,-4.734,-4.7366,-4.703,-4.7027,-4.7025,-4.7024,0,0,-4.6687,-4.675,-4.678,-4.6811,-4.6865,-4.6932,-4.7031,-4.7105,-4.7151,-4.7202,-4.7283,-4.7392,-4.7348,-4.7388,-4.7374,-4.7444,-4.7598,-4.7387,-4.7387,-4.7425,-4.7775,-4.7811,-4.7841,-4.7573,-4.7578,-4.7581,-4.7771,0,-4.6875,-4.7049,-4.7038,-4.7201,-4.728,-4.7233,-4.7319,-4.736,-4.737,-4.7438,-4.7448,-4.7526,-4.7461,-4.7485,-4.7552,-4.7565,-4.7668,-4.7551,-4.7648,-4.7651,-4.7637,-4.7874,-4.7913,-4.809,-4.7795,-4.7799,-4.7802,0,-4.7118,-4.7179,-4.735,-4.7391,-4.7424,-4.7502,-4.7568,-4.7634,-4.7679,-4.7681,-4.7726,-4.7701,-4.7799,-4.7712,-4.7846,-4.7767,-4.7805,-4.7818,-4.7824,-4.7833,-4.7736,-4.7889,-4.8146,-4.8173,-4.784,-4.7837,-4.7834,0,-4.7282,-4.7406,-4.7524,-4.7552,-4.7603,-4.7659,-4.7682,-4.7723,-4.7768,-4.7825,-4.7854,-4.7921,-4.7959,-4.8011,-4.8004,-4.7942,-4.814,-4.8053,-4.8143,-4.8144,-4.8188,-4.8185,-4.8455,-4.8213,-4.8212,-4.8212,-4.8211,0,-4.7493,-4.76,-4.7598,-4.7671,-4.7788,-4.7773,-4.7889,-4.7906,-4.7942,-4.8016,-4.7978,-4.8048,-4.8035,-4.8104,-4.8099,-4.821,-4.8227,-4.823,-4.8228,-4.8234,-4.8234,-4.8259,-4.8247,-4.8219,-4.8217,-4.8216,-4.8215,0,-4.7696,-4.7699,-4.7825,-4.7863,-4.7875,-4.7959,-4.7991,-4.8059,-4.8065,-4.8159,-4.818,-4.819,-4.8269,-4.8267,-4.8357,-4.8353,-4.849,-4.8473,-4.8475,-4.8472,-4.8563,-4.8554,-4.8859,-4.8897,-4.863,-4.8632,-4.8634,0,-4.7831,-4.7912,-4.7959,-4.8006,-4.8033,-4.811,-4.8156,-4.8144,-4.8192,-4.825,-4.831,-4.8386,-4.8447,-4.8576,-4.859,-4.8658,-4.8642,-4.8744,-4.8652,-4.8656,-4.8644,-4.8639,-4.8647,-4.8762,-4.8765,-4.8768,-4.877,0,-4.807,-4.8068,-4.8136,-4.8205,-4.826,-4.8314,-4.8362,-4.8403,-4.8396,-4.8452,-4.8534,-4.858,-4.8672,-4.8748,-4.8813,-4.8835,-4.8802,-4.8798,-4.8823,-4.8831,-4.8829,-4.8831,-4.8525,-4.8792,-4.879,-4.8788,-4.8787,-4.8786,-4.8244,-4.8313,-4.8356,-4.8433,-4.8468,-4.8515,-4.858,-4.8595,-4.8663,-4.8738,-4.8726,-4.8816,-4.8858,-4.8942,-4.897,-4.904,-4.9004,-4.9039,-4.9048,-4.9058,-4.9068,-4.8817,-4.9052,-4.9051,-4.905,-4.905,-4.9049,0,-4.8481,-4.8506,-4.8577,-4.8647,-4.8707,-4.867,-4.8722,-4.8774,-4.8855,-4.8897,-4.8957,-4.905,-4.9122,-4.9142,-4.9212,-4.9263,-4.925,-4.9282,-4.9278,-4.9284,-4.9096,-4.9068,-4.9292,-4.9292,-4.9292,-4.9292,-4.9292,-4.9292,-4.8611,-4.8727,-4.8729,-4.8861,-4.8885,-4.8974,-4.9007,-4.9049,-4.9082,-4.9188,-4.9249,-4.9261,-4.9293,-4.9365,-4.943,-4.9433,-4.946,-4.95,-4.9497,-4.9321,-4.9297,-4.9274,-4.9247,-4.9506,-4.9506,-4.9679,-4.968,-4.9682]}]]